Location: Champs
(48.8539°N, 2.6040°E)
Time: 17:56:38
(UTC+00:00)

DMSP 5D-2 F13 DEB - Pass Details

Date: 13 August 2022
Orbit: 710 x 775 km, 98.8° (Epoch: 23 September)

Event Time Altitude Azimuth Distance (km) Brightness Sun altitude
Exits shadow 22:24:59 39° 92° (E) 1,156 ? -23.7°
Maximum altitude 22:25:52 42° 66° (ENE) 1,096 ? -23.7°
Drops below altitude 10° 22:30:42 10° 357° (N) 2,342 ? -24.0°
Sets 22:33:08 0° 351° (N) 3,278 ? -24.2°
